BCS2MA EDDB-EDDF

Flight info

Callsign BCS2MA
Flight time 0h 53m
Altitude 23000
Route KISUC1B KISUC Z117 ODLUN/N0461F240 DCT ORTAG/N0447F220 T177 ODIPI/N0441F210 T157 KERAX KERAX5A
Aircraft A306/H-SDE3FGHIRWY/LB1

Departure

Time 2026-05-05 18:34
Airport Berlin Brandenburg Airport (EDDB)

Arrival

Time 2026-05-05 19:27
Airport Frankfurt Main Airport (EDDF)
Time Latitude Longitude Altitude Speed Heading
2026-05-05 18:04 52.38355 13.51428 161 ft 0 kts 277°
2026-05-05 18:20 52.38354 13.51444 161 ft 4 kts 275°
2026-05-05 18:20 52.38353 13.51483 161 ft 4 kts 262°
2026-05-05 18:21 52.38359 13.51520 161 ft 4 kts 234°
2026-05-05 18:21 52.38374 13.51539 161 ft 1 kts 187°
2026-05-05 18:28 52.38328 13.51529 161 ft 7 kts 187°
2026-05-05 18:28 52.38271 13.51518 163 ft 9 kts 187°
2026-05-05 18:28 52.38198 13.51503 161 ft 12 kts 187°
2026-05-05 18:29 52.38115 13.51419 161 ft 18 kts 234°
2026-05-05 18:29 52.38039 13.51226 161 ft 21 kts 238°
2026-05-05 18:29 52.37962 13.51027 161 ft 20 kts 237°
2026-05-05 18:29 52.37888 13.50835 161 ft 20 kts 237°
2026-05-05 18:30 52.37813 13.50644 161 ft 20 kts 237°
2026-05-05 18:30 52.37737 13.50451 161 ft 20 kts 237°
2026-05-05 18:30 52.37662 13.50261 161 ft 20 kts 238°
2026-05-05 18:30 52.37590 13.50074 161 ft 19 kts 238°
2026-05-05 18:31 52.37517 13.49888 161 ft 20 kts 237°
2026-05-05 18:31 52.37439 13.49688 161 ft 22 kts 237°
2026-05-05 18:31 52.37355 13.49472 161 ft 23 kts 238°
2026-05-05 18:31 52.37271 13.49257 161 ft 22 kts 237°
2026-05-05 18:32 52.37188 13.49046 161 ft 22 kts 237°
2026-05-05 18:32 52.37107 13.48835 161 ft 22 kts 237°
2026-05-05 18:32 52.37020 13.48641 161 ft 20 kts 217°
2026-05-05 18:32 52.36901 13.48565 161 ft 14 kts 198°
2026-05-05 18:33 52.36812 13.48574 161 ft 12 kts 136°
2026-05-05 18:33 52.36830 13.48762 161 ft 35 kts 69°
2026-05-05 18:33 52.37014 13.49535 161 ft 109 kts 69°
2026-05-05 18:33 52.37365 13.51016 172 ft 168 kts 69°
2026-05-05 18:34 52.37788 13.52802 1073 ft 164 kts 68°
2026-05-05 18:34 52.38202 13.54588 1898 ft 179 kts 69°
2026-05-05 18:34 52.38678 13.56601 2511 ft 203 kts 68°
2026-05-05 18:34 52.39206 13.58813 3297 ft 215 kts 68°
2026-05-05 18:35 52.39843 13.61180 3769 ft 241 kts 60°
2026-05-05 18:35 52.41050 13.63181 4293 ft 257 kts 31°
2026-05-05 18:35 52.42720 13.64376 5027 ft 267 kts 20°
2026-05-05 18:35 52.44491 13.65397 6104 ft 272 kts 19°
2026-05-05 18:36 52.46290 13.66430 7174 ft 277 kts 17°
2026-05-05 18:36 52.48146 13.67434 8228 ft 283 kts 12°
2026-05-05 18:36 52.50112 13.67728 9328 ft 286 kts 353°
2026-05-05 18:36 52.52021 13.66817 10272 ft 292 kts 329°
2026-05-05 18:37 52.53548 13.64524 10708 ft 310 kts 301°
2026-05-05 18:37 52.54240 13.61098 11092 ft 328 kts 273°
2026-05-05 18:37 52.53891 13.57312 11462 ft 346 kts 250°
2026-05-05 18:37 52.52777 13.53709 11843 ft 362 kts 237°
2026-05-05 18:38 52.51311 13.50280 12438 ft 370 kts 233°
2026-05-05 18:38 52.49746 13.46895 13173 ft 375 kts 232°
2026-05-05 18:38 52.48187 13.43442 13895 ft 378 kts 233°
2026-05-05 18:38 52.46671 13.39893 14545 ft 382 kts 235°
2026-05-05 18:39 52.45189 13.36234 15183 ft 387 kts 236°
2026-05-05 18:39 52.43732 13.32501 15861 ft 391 kts 237°
2026-05-05 18:39 52.42282 13.28712 16516 ft 394 kts 238°
2026-05-05 18:39 52.40824 13.24876 17164 ft 398 kts 238°
2026-05-05 18:40 52.39353 13.21009 17781 ft 402 kts 238°
2026-05-05 18:40 52.37865 13.17113 18366 ft 406 kts 238°
2026-05-05 18:40 52.36361 13.13197 18911 ft 408 kts 238°
2026-05-05 18:40 52.34842 13.09256 19463 ft 409 kts 238°
2026-05-05 18:41 52.33318 13.05316 20009 ft 411 kts 237°
2026-05-05 18:41 52.31783 13.01358 20528 ft 413 kts 237°
2026-05-05 18:41 52.30240 12.97388 21046 ft 415 kts 237°
2026-05-05 18:41 52.28688 12.93400 21528 ft 418 kts 237°
2026-05-05 18:42 52.27123 12.89388 22003 ft 420 kts 237°
2026-05-05 18:42 52.25567 12.85404 22478 ft 422 kts 237°
2026-05-05 18:42 52.23985 12.81359 22952 ft 423 kts 237°
2026-05-05 18:42 52.22399 12.77313 23262 ft 424 kts 237°
2026-05-05 18:43 52.20806 12.73252 23499 ft 426 kts 237°
2026-05-05 18:43 52.19204 12.69176 23716 ft 427 kts 237°
2026-05-05 18:43 52.17597 12.65095 23819 ft 427 kts 237°
2026-05-05 18:43 52.16002 12.61052 23827 ft 422 kts 237°
2026-05-05 18:44 52.14416 12.57036 23815 ft 423 kts 237°
2026-05-05 18:44 52.12815 12.52990 24012 ft 426 kts 236°
2026-05-05 18:44 52.11206 12.48932 24412 ft 427 kts 236°
2026-05-05 18:44 52.09596 12.44876 24764 ft 429 kts 236°
2026-05-05 18:45 52.07965 12.40775 25080 ft 431 kts 236°
2026-05-05 18:45 52.06332 12.36677 25429 ft 432 kts 236°
2026-05-05 18:45 52.04696 12.32575 25771 ft 432 kts 236°
2026-05-05 18:45 52.03067 12.28497 25829 ft 432 kts 236°
2026-05-05 18:46 52.01428 12.24401 25825 ft 431 kts 236°
2026-05-05 18:46 51.99792 12.20322 25826 ft 431 kts 236°
2026-05-05 18:46 51.98157 12.16248 25826 ft 431 kts 236°
2026-05-05 18:46 51.96520 12.12180 25826 ft 431 kts 236°
2026-05-05 18:47 51.94882 12.08113 25823 ft 431 kts 236°
2026-05-05 18:47 51.93241 12.04046 25824 ft 431 kts 236°
2026-05-05 18:47 51.91600 11.99984 25823 ft 431 kts 236°
2026-05-05 18:47 51.89956 11.95923 25822 ft 431 kts 235°
2026-05-05 18:48 51.88308 11.91857 25825 ft 432 kts 235°
2026-05-05 18:48 51.86659 11.87794 25828 ft 432 kts 235°
2026-05-05 18:48 51.84997 11.83746 25825 ft 432 kts 234°
2026-05-05 18:48 51.83246 11.79795 25826 ft 432 kts 232°
2026-05-05 18:49 51.81433 11.75931 25824 ft 432 kts 231°
2026-05-05 18:49 51.79592 11.72106 25841 ft 432 kts 231°
2026-05-05 18:49 51.77739 11.68284 25829 ft 432 kts 231°
2026-05-05 18:49 51.75889 11.64461 25827 ft 432 kts 231°
2026-05-05 18:50 51.74047 11.60638 25830 ft 432 kts 231°
2026-05-05 18:50 51.72216 11.56820 25819 ft 424 kts 231°
2026-05-05 18:50 51.70472 11.53171 25811 ft 398 kts 231°
2026-05-05 18:50 51.68822 11.49712 25822 ft 384 kts 231°
2026-05-05 18:51 51.67196 11.46314 25830 ft 382 kts 231°
2026-05-05 18:51 51.65569 11.42921 25829 ft 383 kts 230°
2026-05-05 18:51 51.63941 11.39535 25829 ft 383 kts 230°
2026-05-05 18:51 51.62312 11.36150 25826 ft 383 kts 230°
2026-05-05 18:52 51.60680 11.32764 25824 ft 383 kts 230°
2026-05-05 18:52 51.59048 11.29379 25825 ft 383 kts 230°
2026-05-05 18:52 51.57415 11.25999 25825 ft 383 kts 230°
2026-05-05 18:52 51.55784 11.22625 25827 ft 383 kts 230°
2026-05-05 18:53 51.54149 11.19249 25824 ft 383 kts 230°
2026-05-05 18:53 51.52515 11.15877 25823 ft 383 kts 230°
2026-05-05 18:53 51.50877 11.12502 25820 ft 383 kts 230°
2026-05-05 18:53 51.49265 11.09084 25826 ft 385 kts 232°
2026-05-05 18:54 51.47837 11.05431 25829 ft 387 kts 236°
2026-05-05 18:54 51.46492 11.01746 25816 ft 388 kts 237°
2026-05-05 18:54 51.45144 10.97928 25818 ft 388 kts 238°
2026-05-05 18:54 51.43847 10.94195 25814 ft 388 kts 238°
2026-05-05 18:55 51.42537 10.90406 25818 ft 388 kts 238°
2026-05-05 18:55 51.41224 10.86615 25818 ft 388 kts 238°
2026-05-05 18:55 51.39919 10.82859 25538 ft 384 kts 238°
2026-05-05 18:55 51.38619 10.79135 24866 ft 382 kts 238°
2026-05-05 18:56 51.37323 10.75437 24255 ft 380 kts 238°
2026-05-05 18:56 51.36035 10.71775 23703 ft 376 kts 238°
2026-05-05 18:56 51.34755 10.68139 23131 ft 373 kts 238°
2026-05-05 18:56 51.33483 10.64538 22463 ft 371 kts 238°
2026-05-05 18:57 51.32218 10.60961 21943 ft 368 kts 238°
2026-05-05 18:57 51.30959 10.57403 21818 ft 368 kts 238°
2026-05-05 18:57 51.29695 10.53836 21802 ft 370 kts 238°
2026-05-05 18:57 51.28423 10.50253 21800 ft 371 kts 237°
2026-05-05 18:58 51.27010 10.46795 21803 ft 370 kts 232°
2026-05-05 18:58 51.25472 10.43502 21817 ft 370 kts 230°
2026-05-05 18:58 51.23889 10.40263 21804 ft 370 kts 229°
2026-05-05 18:58 51.22281 10.37060 21803 ft 370 kts 229°
2026-05-05 18:59 51.20663 10.33877 21799 ft 370 kts 229°
2026-05-05 18:59 51.19062 10.30737 21796 ft 370 kts 229°
2026-05-05 18:59 51.17390 10.27635 21814 ft 369 kts 224°
2026-05-05 18:59 51.15458 10.24968 21792 ft 366 kts 214°
2026-05-05 19:00 51.13267 10.22949 21576 ft 362 kts 204°
2026-05-05 19:00 51.10881 10.21728 20866 ft 361 kts 190°
2026-05-05 19:00 51.08387 10.21220 20203 ft 360 kts 184°
2026-05-05 19:00 51.05895 10.21061 19611 ft 358 kts 180°
2026-05-05 19:01 51.03412 10.21069 19031 ft 355 kts 179°
2026-05-05 19:01 51.00948 10.21130 18446 ft 353 kts 179°
2026-05-05 19:01 50.99293 10.21168 18049 ft 352 kts 179°
2026-05-05 19:01 50.96851 10.21201 17381 ft 350 kts 179°
2026-05-05 19:02 50.94428 10.21204 16745 ft 347 kts 180°
2026-05-05 19:02 50.92019 10.21182 16148 ft 345 kts 180°
2026-05-05 19:02 50.89631 10.21143 15854 ft 343 kts 180°
2026-05-05 19:02 50.87241 10.21094 15800 ft 344 kts 180°
2026-05-05 19:03 50.84855 10.20877 15593 ft 343 kts 187°
2026-05-05 19:03 50.82550 10.19906 14931 ft 345 kts 202°
2026-05-05 19:03 50.80565 10.17906 14366 ft 344 kts 220°
2026-05-05 19:03 50.78915 10.15192 13828 ft 341 kts 227°
2026-05-05 19:04 50.77360 10.12371 13509 ft 340 kts 229°
2026-05-05 19:04 50.75823 10.09531 13237 ft 340 kts 229°
2026-05-05 19:04 50.74284 10.06701 12972 ft 339 kts 228°
2026-05-05 19:04 50.72747 10.03889 12712 ft 337 kts 227°
2026-05-05 19:05 50.71216 10.01103 12453 ft 335 kts 227°
2026-05-05 19:05 50.69694 9.98321 12200 ft 334 kts 228°
2026-05-05 19:05 50.68177 9.95554 11940 ft 333 kts 228°
2026-05-05 19:05 50.66662 9.92798 11680 ft 331 kts 228°
2026-05-05 19:06 50.65157 9.90063 11413 ft 330 kts 228°
2026-05-05 19:06 50.63656 9.87340 11195 ft 328 kts 228°
2026-05-05 19:06 50.62160 9.84631 10958 ft 327 kts 228°
2026-05-05 19:06 50.60674 9.81934 10820 ft 326 kts 228°
2026-05-05 19:07 50.59184 9.79240 10804 ft 325 kts 227°
2026-05-05 19:07 50.57701 9.76562 10802 ft 325 kts 228°
2026-05-05 19:07 50.56219 9.73885 10803 ft 324 kts 227°
2026-05-05 19:07 50.54736 9.71209 10816 ft 325 kts 228°
2026-05-05 19:08 50.53253 9.68537 10808 ft 324 kts 227°
2026-05-05 19:08 50.51770 9.65867 10809 ft 324 kts 228°
2026-05-05 19:08 50.50286 9.63199 10809 ft 324 kts 227°
2026-05-05 19:08 50.48805 9.60523 10807 ft 325 kts 229°
2026-05-05 19:09 50.47533 9.57590 10817 ft 326 kts 242°
2026-05-05 19:09 50.46735 9.54271 10816 ft 325 kts 251°
2026-05-05 19:09 50.46091 9.50874 10816 ft 325 kts 251°
2026-05-05 19:09 50.45465 9.47464 10814 ft 325 kts 252°
2026-05-05 19:10 50.44833 9.44062 10809 ft 325 kts 252°
2026-05-05 19:10 50.44194 9.40664 10812 ft 324 kts 252°
2026-05-05 19:10 50.43552 9.37270 10810 ft 324 kts 251°
2026-05-05 19:10 50.42908 9.33882 10812 ft 324 kts 251°
2026-05-05 19:11 50.42272 9.30543 10802 ft 311 kts 251°
2026-05-05 19:11 50.41675 9.27402 10807 ft 293 kts 251°
2026-05-05 19:11 50.41064 9.24386 10814 ft 288 kts 249°
2026-05-05 19:11 50.40395 9.21436 10814 ft 287 kts 248°
2026-05-05 19:12 50.39711 9.18489 10813 ft 287 kts 248°
2026-05-05 19:12 50.39028 9.15553 10814 ft 287 kts 248°
2026-05-05 19:12 50.38345 9.12610 10814 ft 287 kts 248°
2026-05-05 19:12 50.37662 9.09674 10815 ft 287 kts 248°
2026-05-05 19:13 50.36978 9.06736 10650 ft 286 kts 248°
2026-05-05 19:13 50.36296 9.03809 10232 ft 285 kts 248°
2026-05-05 19:13 50.35619 9.00900 9828 ft 283 kts 248°
2026-05-05 19:13 50.34945 8.98010 9380 ft 281 kts 248°
2026-05-05 19:14 50.34274 8.95148 8963 ft 278 kts 248°
2026-05-05 19:14 50.33488 8.92470 8704 ft 263 kts 238°
2026-05-05 19:14 50.32463 8.90216 8430 ft 248 kts 227°
2026-05-05 19:14 50.31232 8.88458 8043 ft 240 kts 210°
2026-05-05 19:15 50.29665 8.87725 7632 ft 237 kts 182°
2026-05-05 19:15 50.28050 8.88379 7148 ft 242 kts 151°
2026-05-05 19:15 50.26892 8.90276 6855 ft 247 kts 119°
2026-05-05 19:15 50.26518 8.92895 6826 ft 252 kts 91°
2026-05-05 19:16 50.26668 8.95642 6824 ft 255 kts 84°
2026-05-05 19:16 50.26905 8.98353 6822 ft 256 kts 83°
2026-05-05 19:16 50.27153 9.01104 6815 ft 256 kts 83°
2026-05-05 19:16 50.27403 9.03856 6815 ft 256 kts 83°
2026-05-05 19:17 50.27621 9.06613 6804 ft 255 kts 91°
2026-05-05 19:17 50.27234 9.09256 6813 ft 248 kts 121°
2026-05-05 19:17 50.26101 9.11189 6821 ft 240 kts 152°
2026-05-05 19:17 50.24546 9.11919 6817 ft 233 kts 182°
2026-05-05 19:18 50.23019 9.11277 6826 ft 228 kts 212°
2026-05-05 19:18 50.21771 9.09757 6825 ft 228 kts 223°
2026-05-05 19:18 50.20602 9.08065 6952 ft 230 kts 224°
2026-05-05 19:18 50.19436 9.06355 7006 ft 230 kts 224°
2026-05-05 19:19 50.18268 9.04646 7006 ft 230 kts 224°
2026-05-05 19:19 50.17101 9.02933 7000 ft 230 kts 224°
2026-05-05 19:19 50.16084 9.01011 6992 ft 230 kts 238°
2026-05-05 19:19 50.15392 8.98756 6985 ft 231 kts 248°
2026-05-05 19:20 50.14846 8.96402 6777 ft 231 kts 249°
2026-05-05 19:20 50.14302 8.94050 6474 ft 230 kts 249°
2026-05-05 19:20 50.13745 8.91740 6079 ft 223 kts 248°
2026-05-05 19:20 50.13224 8.89566 5688 ft 209 kts 249°
2026-05-05 19:21 50.12730 8.87488 5264 ft 201 kts 249°
2026-05-05 19:21 50.12253 8.85491 4918 ft 193 kts 249°
2026-05-05 19:21 50.11798 8.83583 4638 ft 183 kts 249°
2026-05-05 19:21 50.11366 8.81772 4390 ft 175 kts 249°
2026-05-05 19:22 50.10949 8.80023 4161 ft 171 kts 249°
2026-05-05 19:22 50.10534 8.78285 3931 ft 171 kts 249°
2026-05-05 19:22 50.10122 8.76558 3691 ft 170 kts 249°
2026-05-05 19:22 50.09709 8.74829 3448 ft 170 kts 249°
2026-05-05 19:23 50.09299 8.73109 3208 ft 169 kts 250°
2026-05-05 19:23 50.08889 8.71393 2958 ft 169 kts 249°
2026-05-05 19:23 50.08479 8.69675 2715 ft 169 kts 249°
2026-05-05 19:23 50.08075 8.67984 2482 ft 163 kts 249°
2026-05-05 19:24 50.07697 8.66403 2244 ft 149 kts 249°
2026-05-05 19:24 50.07353 8.64961 2053 ft 137 kts 249°
2026-05-05 19:24 50.07025 8.63588 1854 ft 135 kts 249°
2026-05-05 19:24 50.06697 8.62217 1660 ft 135 kts 249°
2026-05-05 19:25 50.06374 8.60866 1465 ft 132 kts 249°
2026-05-05 19:25 50.06057 8.59527 1276 ft 132 kts 249°
2026-05-05 19:25 50.05734 8.58187 1072 ft 133 kts 249°
2026-05-05 19:25 50.05409 8.56829 888 ft 135 kts 249°
2026-05-05 19:26 50.05083 8.55456 694 ft 136 kts 249°
2026-05-05 19:26 50.04754 8.54077 522 ft 137 kts 249°
2026-05-05 19:26 50.04434 8.52766 365 ft 120 kts 250°
2026-05-05 19:26 50.04194 8.51746 350 ft 77 kts 250°
2026-05-05 19:27 50.04062 8.51204 333 ft 35 kts 245°
2026-05-05 19:27 50.03948 8.50965 329 ft 23 kts 228°
2026-05-05 19:27 50.03837 8.50837 331 ft 11 kts 197°
2026-05-05 19:27 50.03824 8.50835 333 ft 0 kts 183°
2026-05-05 19:28 50.03816 8.50836 336 ft 4 kts 175°
2026-05-05 19:29 50.03777 8.50892 336 ft 11 kts 116°
2026-05-05 19:29 50.03729 8.51044 356 ft 19 kts 116°
2026-05-05 19:29 50.03669 8.51233 356 ft 18 kts 116°
2026-05-05 19:29 50.03620 8.51390 364 ft 16 kts 116°
2026-05-05 19:30 50.03563 8.51570 367 ft 20 kts 116°
2026-05-05 19:30 50.03510 8.51763 366 ft 19 kts 95°
2026-05-05 19:30 50.03522 8.51945 363 ft 12 kts 83°
2026-05-05 19:30 50.03529 8.52034 358 ft 0 kts 83°
2026-05-05 19:33 50.03530 8.52036 358 ft 1 kts 83°
2026-05-05 19:33 50.03533 8.52076 359 ft 9 kts 83°
2026-05-05 19:33 50.03543 8.52213 352 ft 15 kts 83°
2026-05-05 19:33 50.03566 8.52376 354 ft 16 kts 70°
2026-05-05 19:34 50.03595 8.52532 355 ft 15 kts 89°
2026-05-05 19:34 50.03609 8.52678 356 ft 9 kts 53°
2026-05-05 19:34 50.03657 8.52680 353 ft 6 kts 342°
2026-05-05 19:35 50.03714 8.52646 359 ft 0 kts 339°